Regional Weather Roundup
Issued by NWS Jackson, KY

Home | Current Version | Previous Version | Graphics & Text | Print | Product List | Glossary On
Versions: 1 2 3 4 5 6 7 8 9 10 11 12 13 14 15 16 17 18 19 20 21 22 23 24 25 26 27 28 29 30 31 32 33 34 35 36 37 38 39 40 41 42 43 44 45 46 47 48 49 50
000
ASUS43 KJKL 291510
RWRJKL

EAST KENTUCKY HOURLY WEATHER ROUNDUP
NATIONAL WEATHER SERVICE JACKSON KY
1100 AM EDT SUN MAR 29 2015

NOTE: "FAIR" INDICATES FEW OR NO CLOUDS BELOW 12,000 FEET WITH
NO SIGNIFICANT WEATHER AND/OR OBSTRUCTIONS TO VISIBILITY.

* THESE REPORTS ARE NOT UNDER NWS QUALITY CONTROL AND MAY NOT
  REPORT WEATHER SUCH AS PRECIPITATION AND FOG.

KYZ079-080-083-085-087-088-110-112-115-119-120-291600
...EASTERN KENTUCKY...

CITY           SKY/WX    TMP DP  RH WIND       PRES   REMARKS
JACKSON        SUNNY     36  13  38 VRB5      30.35F WCI  32
LONDON         SUNNY     37  11  34 SE7       30.34F WCI  32
SOMERSET*      SUNNY     37  16  41 S6        30.36S WCI  33
MONTICELLO*    SUNNY     40  18  41 CALM      30.37F
MIDDLESBORO*   SUNNY     38  15  40 E7        30.38F WCI  32
HAZARD APT*    SUNNY     39  12  33 CALM      30.36F
BLACK MTN*       N/A     30   1  29 SW8         N/A  WCI  23
PIKEVILLE APT* SUNNY     34  10  37 SE6       30.38R WCI  29
BIG SANDY*     SUNNY     35  15  44 SW7       30.39S WCI  29
MOREHEAD APT*  SUNNY     36  14  41 SE10      30.37F WCI  28
$$

KYZ035-036-041-042-044-050-067-078-099-291600
...CENTRAL KENTUCKY...

CITY           SKY/WX    TMP DP  RH WIND       PRES   REMARKS
MT STERLING*   SUNNY     36  14  41 S8        30.36F WCI  29
FLEMING/MASON* SUNNY     36  18  48 S12       30.36F WCI  27
DANVILLE*      SUNNY     37  16  41 S12       30.34F WCI  30
RICHMOND*      SUNNY     39  10  30 SE9       30.34F WCI  33
LEXINGTON      SUNNY     38  16  40 S14       30.33F WCI  30
FRANKFORT      SUNNY     38  16  40 SE14      30.31F WCI  30
$$

KYZ091>093-OHZ055-061-077-WVZ005-015-034-035-042-291600
...SOUTHERN OHIO/WEST VIRGINIA...

CITY           SKY/WX    TMP DP  RH WIND       PRES   REMARKS
COVINGTON      MOSUNNY   38  17  42 S13       30.31F WCI  30
COLUMBUS       MOSUNNY   33  11  39 S15       30.34F WCI  23
DAYTON         PTSUNNY   36  17  46 S12       30.32R WCI  28
WILMINGTON     SUNNY     34  18  52 S14       30.32S WCI  25
HUNTINGTON     SUNNY     34  10  37 SE8       30.38F WCI  27
CHARLESTON     SUNNY     33   6  32 E5        30.39F WCI  29
PINEVILLE*     SUNNY     35  15  44 MISG      30.42R
BECKLEY        SUNNY     30   4  33 CALM      30.31F
BLUEFIELD      SUNNY     32   1  26 VRB5      30.31S WCI  27
$$

VAZ002-007-008-TNZ017-027-036-066-071-291600
...SOUTHWEST VIRGINIA/EAST TENNESSEE...

CITY           SKY/WX    TMP DP  RH WIND       PRES   REMARKS
WISE*          SUNNY     36   9  32 S3        30.32F
JONESVILLE*    SUNNY     36  10  35 NE5       30.40F WCI  32
ABINGDON*      SUNNY     37   7  28 CALM      30.36S
BRISTOL        SUNNY     36   9  32 VRB5      30.38F WCI  32
KNOXVILLE      MOSUNNY   40  19  43 VRB3      30.39R
OAK RIDGE      SUNNY     40  15  36 CALM      30.40S
CROSSVILLE     SUNNY     40  10  29 S9        30.34R WCI  34
NASHVILLE      MOSUNNY   45  15  30 S17       30.34F
$$

...KEY TO REMARKS...
VSB - VISIBILITY IN MILES
WCI - WIND CHILL INDEX
HX  - HEAT INDEX

$$



USA.gov is the U.S. government's official web portal to all federal, state and local government web resources and services.